Regional Weather Roundup
Issued by NWS

Home | Current Version | Previous Version | Text Only | Print | Product List | Glossary Off
Versions: 1 2 3 4 5 6 7 8 9 10 11 12 13 14 15 16 17 18 19 20 21 22 23 24 25 26 27 28 29 30 31 32 33 34 35 36 37 38 39 40 41 42 43 44 45 46 47 48 49 50

000
ASUS43 KDTX 301410
RWRMI
MICHIGAN HOURLY REGIONAL WEATHER ROUNDUP
NATIONAL WEATHER SERVICE DETROIT/PONTIAC MI
1000 AM EDT TUE SEP 30 2014

NOTE: "FAIR" INDICATES FEW OR NO CLOUDS BELOW 12,000 FEET WITH NO
SIGNIFICANT WEATHER AND/OR OBSTRUCTION TO VISIBILITY.

MIZ047>049-052>055-059>063-066>070-074>076-081>083-301500-
SOUTHEAST LOWER MICHIGAN

CITY           SKY/WX    TMP DP  RH WIND       PRES   REMARKS
ADRIAN         CLOUDY    53  49  86 NE8       29.98S
ALMA           CLOUDY    50  47  89 N8        30.01S
ANN ARBOR      CLOUDY    54  48  80 N8        29.97R
BAD AXE        CLOUDY    49  49 100 N15       29.97R
DETROIT CITY   CLOUDY    54  50  86 N8        29.96S
DETROIT        CLOUDY    54  49  83 NW8       29.96S
FLINT          CLOUDY    52  48  86 N10       29.99S FOG
GROSSE ILE     CLOUDY    55  52  88 N8        29.95R
HILLSDALE      CLOUDY    51  51  98 N6        29.98R FOG
HOWELL         CLOUDY    50  48  95 NW7       29.98R FOG

CITY           SKY/WX    TMP DP  RH WIND       PRES   REMARKS
JACKSON        CLOUDY    51  49  92 N6        29.98R FOG
LAMBERTVILLE   CLOUDY    54  50  87 N5        29.97S FOG
LANSING        CLOUDY    52  47  83 N9        30.00R
LAPEER         NOT AVBL
MASON          CLOUDY    49  47  93 N9        29.99R FOG
MONROE         CLOUDY    54  52  94 NW6       29.95R
MT. CLEMENS    CLOUDY    54  52  95 N10       29.93R
PONTIAC        LGT RAIN  52  48  86 N9        29.95S
PORT HOPE        N/A     53  49  86 VRB5      29.94S
PORT HURON     CLOUDY    52  50  93 NW8       29.95S
TRI CITIES     CLOUDY    51  44  77 N13       30.01R
YPSILANTI      CLOUDY    56  49  77 N6        29.97R
$$
MIZ043>046-050>051-056>058-064>065-071>073-077>080-301500-
SOUTHWEST LOWER MICHIGAN

CITY           SKY/WX    TMP DP  RH WIND       PRES   REMARKS
BATTLE CREEK   LGT RAIN  50  47  89 N7        30.01R
BIG RAPIDS     CLOUDY    47  47 100 N8        30.02R
COLDWATER      CLOUDY    50  48  93 N7        30.00R
GRAND RAPIDS   CLOUDY    51  47  86 N9        30.01F
KALAMAZOO      LGT RAIN  50  46  86 N10       30.01S FOG
MARSHALL       CLOUDY    48  47  97 NW3       29.99R FOG
MUSKEGON       PTSUNNY   52  45  77 N8        30.04F
$$
MIZ016>042-301500-
NORTHERN LOWER MICHIGAN

CITY           SKY/WX    TMP DP  RH WIND       PRES   REMARKS
ALPENA         CLOUDY    48  45  89 N10       30.02R
BEAVER ISLAND  CLOUDY    47  44  87 NE7       30.07S
BELLAIRE       CLOUDY    46  43  88 NE6       30.05S
CADILLAC       CLOUDY    44  44 100 N7        30.02S
CHARLEVOIX     CLOUDY    47  45  92 NE8       30.09R
FRANKFORT      CLOUDY    50  45  81 N6        30.05S
GAYLORD        CLOUDY    44  42  93 NE5       30.03S FOG
GRAYLING       CLOUDY    47  45  91 N7        30.03F
HARBOR SPRINGS CLOUDY    46  42  87 N3        30.06S
HOUGHTON LAKE  CLOUDY    46  41  82 N9        30.02S
OSCODA         CLOUDY    47  46  95 NW9       29.98S
PELLSTON       CLOUDY    45  43  93 N7        30.07R
TRAVERSE CITY  CLOUDY    48  43  82 NE9       30.03S
$$
MIZ007>008-015-301500-
EASTERN UPPER MICHIGAN

CITY           SKY/WX    TMP DP  RH WIND       PRES   REMARKS
MACKINAC ISLAN CLOUDY    44  42  92 N9        30.06S
NEWBERRY       CLOUDY    43  40  90 N7        30.08R
S. S. MARIE    CLOUDY    45  38  76 VRB3      30.07S
$$
MIZ004>006-011>014-085-301500-
CENTRAL UPPER MICHIGAN

CITY           SKY/WX    TMP DP  RH WIND       PRES   REMARKS
MANISTIQUE     CLOUDY    45  41  86 N10G16    30.08S
SAWYER-GWINN   CLOUDY    41  37  87 N12       30.11S
$$
MIZ001>003-009>011-084-301500-
WESTERN UPPER MICHIGAN

CITY           SKY/WX    TMP DP  RH WIND       PRES   REMARKS
IRON MOUNTAIN  CLOUDY    42  38  85 N9        30.11S
HOUGHTON       MOSUNNY   45  35  68 NE8       30.15S
COPPER HARBOR    N/A     46  36  68 E6        30.16S
$$

ABBREVIATIONS USED IN REMARKS
   TC - TEMPERATURE IN CELSIUS
  WCI - WIND CHILL INDEX
   HX - HEAT INDEX
  VSB - VISIBILITY



USA.gov is the U.S. government's official web portal to all federal, state and local government web resources and services.